AirNav   Air Wisconsin Airman Trainee
 
 985 users online  

K64 Vinland Valley Aerodrome
Baldwin City, Kansas, USA

GOING TO BALDWIN CITY?


FAA INFORMATION EFFECTIVE 23 MAY 2019

Location

FAA Identifier: K64
Lat/Long: 38-50-10.0700N / 095-10-55.3300W
38-50.167833N / 095-10.922167W
38.8361306 / -95.1820361
(estimated)
Elevation: 890 ft. / 271 m (estimated)
Variation: 05E (1985)
From city: 3 miles N of BALDWIN CITY, KS
Time zone: UTC -5 (UTC -6 during Standard Time)
Zip code: 66006

Airport Operations

Airport use: Open to the public
Activation date: 10/1969
Control tower: no
ARTCC: KANSAS CITY CENTER
FSS: WICHITA FLIGHT SERVICE STATION
NOTAMs facility: ICT (NOTAM-D service available)
Attendance: MON-THURS 0730-1730, ALL FRIDAY 0730-1700
Wind indicator: yes
Segmented circle: no
Lights: DUSK-DAWN. ACTVT LIRL RY 16/34 - CTAF 3 CLICKS

Airport Communications

CTAF: 122.9
WX ASOS at LWC (11 nm N): 121.225 (785-749-1309)
WX ASOS at IXD (14 nm E): 135.325 (913-780-6987)
WX AWOS-3 at OWI (18 nm S): 118.25 (785-242-2185)

Nearby radio navigation aids

VOR radial/distance  VOR name  Freq  Var
TOPr132/24.9TOPEKA VORTAC117.8005E
MCIr213/34.0KANSAS CITY VORTAC113.2505E

 
NDB name  Hdg/Dist  Freq  Var  ID
NEWBN192/4.833804EJZ .--- --..

Airport Services

Fuel available: 100LL
FUEL ONLY AVLB OP HRS OR W/PRIOR ARRANGEMENT
Parking: tiedowns

Runway Information

Runway 16/34

Dimensions: 3030 x 80 ft. / 924 x 24 m
Surface: turf, in excellent condition
Runway edge lights: non-standard
NSTD LIRL.
RUNWAY 16  RUNWAY 34
Traffic pattern: leftleft
Obstructions: 33 ft. tree, 427 ft. from runway, 88 ft. left of centerline, 13:1 slope to clearnone

Airport Ownership and Management from official FAA records

Ownership: Privately-owned
Owner: K64 LLC
696 E. 1700 RD.
BALDWIN CITY, KS 66006
Phone 785-594-2741
Manager: CHERYL KURTZ
696 E. 1700 RD
BALDWIN CITY, KS 66006
Phone 785-594-2741

Airport Operational Statistics

Aircraft based on the field: 22
Single engine airplanes: 22
    
Aircraft operations: avg 105/week *
91% local general aviation
9% transient general aviation
* for 12-month period ending 31 August 2018

Additional Remarks

TALL TREES L SIDE AER 16.
PATTERN ALTITUDE: FIXED WING AIRCRAFT: 1690 MSL.

Instrument Procedures

There are no published instrument procedures at K64.

Some nearby airports with instrument procedures:

KLWC - Lawrence Municipal Airport (11 nm N)
KIXD - New Century AirCenter Airport (14 nm E)
KOWI - Ottawa Municipal Airport (18 nm S)
KOJC - Johnson County Executive Airport (21 nm E)
K81 - Miami County Airport (22 nm SE)
 
Loc | Ops | Rwys | IFR | FBO | Links
Com | Nav | Svcs | Stats | Notes

Kansas City Aviation Department
 
Area around K64 (Vinland Valley Aerodrome)
 
Road maps at: MapQuest Bing Google
 
Aerial photo
WARNING: Photo may not be current or correct
Aerial photo of K64 (Vinland Valley Aerodrome)
Photo © Jon Blumb, 2004
Photo taken 29-Sep-2004

Do you have a better or more recent aerial photo of Vinland Valley Aerodrome that you would like to share? If so, please send us your photo.

 
Sectional chart

 
Airport distance calculator
Flying to Vinland Valley Aerodrome? Find the distance to fly.

From to K64

Sunrise and sunset
Times for 17-Jun-2019
 Local
(UTC-5)
 Zulu
(UTC)
Morning civil twilight05:2410:24
Sunrise05:5610:56
Sunset20:4701:47
Evening civil twilight21:1902:19

Current date and time
Zulu (UTC)  18-Jun-2019 01:38:38
Local (UTC-5)  17-Jun-2019 20:38:38
 
METAR
KLWC 
11nm N 
180052Z AUTO 06006KT 10SM CLR 27/18 A2990 RMK AO2 SLP119 T02670183
KIXD 
14nm E 
180053Z 19007KT 10SM CLR 24/20 A2993 RMK AO2 SLP125 T02390200
KOWI 
18nm S 
180115Z AUTO 08005KT 10SM BKN095 24/22 A2990 RMK AO2 PWINO
KOJC 
21nm E 
180053Z 16007KT 10SM FEW033 24/21 A2992 RMK AO2 SLP122 T02440206
TAF
KIXD 
14nm E 
171906Z 1719/1818 07007KT P6SM SCT025 BKN050 FM180200 VRB05KT P6SM SCT200 FM181400 VRB06KT P6SM BKN020
NOTAMs
Click for the latest NOTAMs
NOTAMs are issued by the DoD/FAA and will open in a separate window not controlled by AirNav.

 

 
 

FBO, Fuel Providers, and Aircraft Ground Support

  
 Business Name 
 
 Contact 
 
 Services / Description 
 
Fuel Prices
 
Comments
  
Vinland Valley Aerodrome 785-594-2741
no information available

If you are affiliated with Vinland Valley Aerodrome and would like to show here your services, contact info, web link, logo, and more, click here
100LL
SS $4.53 
 Updated 10-Jun-2019
 
   1 read write
SS=Self service
Update Fuel Prices
 

Would you like to see your business listed on this page?

 If your business provides an interesting product or service to pilots, flight crews, aircraft, or users of the Vinland Valley Aerodrome, you should consider listing it here.  To start the listing process, click on the button below
 
Add a business
 

Other Pages about Vinland Valley Aerodrome

Update a link
 
Copyright © AirNav, LLC. All rights reserved. Privacy Policy  Contact